TimeEAT,TemperatureF,Dew PointF,Humidity,Sea Level PressureIn,VisibilityMPH,Wind Direction,Wind SpeedMPH,Gust SpeedMPH,PrecipitationIn,Events,Conditions,WindDirDegrees,DateUTC
12:00 AM,57,51,75,,19,Calm,Calm,,,,,,2013-07-16 21:00:00
12:00 AM,57.2,51.8,82,30.24,6.2,Calm,Calm,-,N/A,,Clear,0,2013-07-16 21:00:00
1:00 AM,57.2,51.8,82,30.24,6.2,SSW,8.1,-,N/A,,Clear,210,2013-07-16 22:00:00
3:00 AM,57.2,50.0,77,30.18,6.2,Calm,Calm,-,N/A,,Clear,0,2013-07-17 00:00:00
4:00 AM,57.2,50.0,77,30.18,6.2,Calm,Calm,-,N/A,,Clear,0,2013-07-17 01:00:00
5:00 AM,55.4,50.0,82,30.18,6.2,SW,8.1,-,N/A,,Clear,220,2013-07-17 02:00:00
6:00 AM,51.8,46.4,82,30.24,6.2,Calm,Calm,-,N/A,,Clear,0,2013-07-17 03:00:00
7:00 AM,51.8,48.2,88,30.24,-9999.0,Calm,Calm,-,N/A,,Clear,0,2013-07-17 04:00:00
8:00 AM,55.4,50.0,82,30.27,6.2,WSW,5.8,-,N/A,,Partly Cloudy,250,2013-07-17 05:00:00
9:00 AM,,49,,,19,SW,17.9,,,,Scattered Clouds,220,2013-07-17 06:00:00
9:00 AM,62.6,48.2,59,30.30,6.2,SW,9.2,-,N/A,,Partly Cloudy,220,2013-07-17 06:00:00
10:00 AM,66.2,50.0,56,30.30,6.2,SSE,9.2,-,N/A,,Partly Cloudy,150,2013-07-17 07:00:00
11:00 AM,71.6,50.0,46,30.30,6.2,West,11.5,-,N/A,,Partly Cloudy,260,2013-07-17 08:00:00
12:00 PM,74,50,32,,19,Calm,Calm,,,,Scattered Clouds,,2013-07-17 09:00:00
12:00 PM,73.4,50.0,44,30.27,6.2,Calm,Calm,-,N/A,,Partly Cloudy,0,2013-07-17 09:00:00
1:00 PM,77.0,48.2,36,30.24,6.2,Calm,Calm,-,N/A,,Partly Cloudy,0,2013-07-17 10:00:00
2:00 PM,77.0,48.2,36,30.18,6.2,Calm,Calm,-,N/A,,Scattered Clouds,0,2013-07-17 11:00:00
3:00 PM,80,47,21,,19,Calm,Calm,,,,Partly Cloudy,,2013-07-17 12:00:00
3:00 PM,80.6,46.4,30,30.15,6.2,Calm,Calm,-,N/A,,Scattered Clouds,0,2013-07-17 12:00:00
4:00 PM,78.8,46.4,32,30.15,6.2,ENE,17.3,-,N/A,,Scattered Clouds,70,2013-07-17 13:00:00
5:00 PM,77.0,50.0,39,30.15,6.2,East,11.5,-,N/A,,Partly Cloudy,90,2013-07-17 14:00:00
6:00 PM,73,51,35,,19,ESE,13.8,,,,Scattered Clouds,120,2013-07-17 15:00:00
6:00 PM,73.4,51.8,47,30.15,6.2,ESE,13.8,-,N/A,,Mostly Cloudy,120,2013-07-17 15:00:00
7:00 PM,69.8,53.6,56,30.18,-9999.0,Calm,Calm,-,N/A,,Clear,0,2013-07-17 16:00:00
9:00 PM,64,53,59,,19,South,20.7,,,,,190,2013-07-17 18:00:00
9:00 PM,64.4,53.6,68,30.24,6.2,South,20.7,-,N/A,,Clear,190,2013-07-17 18:00:00